マクノート彗星

336P/McNaught (2006)

English version
Home page
Updated on February 27, 2016

---------------------------------------------------------------------

・ プロフィール

符号 336P/2006 G1
発見日 2006年4月5日
発見光度 18.0等
発見者 R. H. McNaught (Siding Spring)

・ 軌道要素

Epoch 2006 Aug. 13.0 TT = JDT 2453960.5
T 2006 Aug. 18.51568 TT                                 MPCW
q   2.6320236            (2000.0)            P               Q
n   0.09320818     Peri.  313.94513     -0.25641666     +0.92582260
a   4.8176292      Node   299.25198     -0.77037595     -0.36925701
e   0.4536683      Incl.   18.55767     -0.58375628     +0.08063361
P  10.6
From 121 observations 2006 Apr. 5-2016 Feb. 14, mean residual 0".5.

・ 光度変化

        m1 = 12.0 + 5 logΔ + 10.0 log r

---------------------------------------------------------------------

軌道要素はM.P.E.C. 2016-C201に掲載されたものです。
光度グラフはComet for Windowsで作成したものです。

---------------------------------------------------------------------

Copyright(C) Seiichi Yoshida (comet@aerith.net). All rights reserved.